TimeCDT,TemperatureF,Dew PointF,Humidity,Sea Level PressureIn,VisibilityMPH,Wind Direction,Wind SpeedMPH,Gust SpeedMPH,PrecipitationIn,Events,Conditions,WindDirDegrees,DateUTC
12:53 AM,57.0,54.0,89,30.09,6.0,Calm,Calm,-,N/A,,Clear,0,2012-10-10 05:53:00
1:31 AM,55.4,53.6,94,30.09,6.0,Calm,Calm,-,N/A,,Partly Cloudy,0,2012-10-10 06:31:00
1:53 AM,55.0,53.1,93,30.09,6.0,Calm,Calm,-,N/A,,Mostly Cloudy,0,2012-10-10 06:53:00
2:53 AM,54.0,53.1,97,30.09,4.0,Calm,Calm,-,N/A,,Mostly Cloudy,0,2012-10-10 07:53:00
3:34 AM,53.6,51.8,94,30.11,7.0,Calm,Calm,-,N/A,,Scattered Clouds,0,2012-10-10 08:34:00
3:53 AM,54.0,52.0,93,30.10,5.0,Calm,Calm,-,N/A,,Clear,0,2012-10-10 08:53:00
4:18 AM,53.6,51.8,94,30.11,6.0,Calm,Calm,-,N/A,,Scattered Clouds,0,2012-10-10 09:18:00
4:26 AM,53.6,51.8,94,30.11,5.0,Calm,Calm,-,N/A,,Mostly Cloudy,0,2012-10-10 09:26:00
4:29 AM,53.6,51.8,94,30.11,1.8,Calm,Calm,-,N/A,,Mostly Cloudy,0,2012-10-10 09:29:00
4:34 AM,53.6,51.8,94,30.11,0.8,Calm,Calm,-,N/A,,Mist,0,2012-10-10 09:34:00
4:43 AM,53.6,51.8,94,30.12,0.5,Calm,Calm,-,N/A,Fog,Fog,0,2012-10-10 09:43:00
4:53 AM,53.1,52.0,96,30.12,0.2,Calm,Calm,-,N/A,Fog,Fog,0,2012-10-10 09:53:00
5:19 AM,53.6,51.8,94,30.12,0.5,Calm,Calm,-,N/A,Fog,Fog,0,2012-10-10 10:19:00
5:24 AM,53.6,51.8,94,30.12,1.0,Calm,Calm,-,N/A,,Mist,0,2012-10-10 10:24:00
5:31 AM,53.6,51.8,94,30.13,0.5,Calm,Calm,-,N/A,Fog,Fog,0,2012-10-10 10:31:00
5:40 AM,53.6,53.6,100,30.13,0.2,Calm,Calm,-,N/A,Fog,Fog,0,2012-10-10 10:40:00
5:53 AM,54.0,53.1,97,30.13,0.2,Calm,Calm,-,N/A,Fog,Fog,0,2012-10-10 10:53:00
6:09 AM,53.6,53.6,100,30.14,0.2,Calm,Calm,-,N/A,Fog,Fog,0,2012-10-10 11:09:00
6:53 AM,55.9,54.0,93,30.15,0.2,Calm,Calm,-,N/A,Fog,Fog,0,2012-10-10 11:53:00
7:25 AM,55.4,55.4,100,30.16,1.0,Calm,Calm,-,N/A,,Overcast,0,2012-10-10 12:25:00
7:37 AM,55.4,55.4,100,30.16,0.8,Calm,Calm,-,N/A,,Overcast,0,2012-10-10 12:37:00
7:53 AM,57.0,55.0,93,30.17,0.8,Calm,Calm,-,N/A,,Overcast,0,2012-10-10 12:53:00
8:01 AM,57.2,55.4,94,30.17,0.2,Calm,Calm,-,N/A,Fog,Fog,0,2012-10-10 13:01:00
8:53 AM,60.1,59.0,96,30.17,1.0,Calm,Calm,-,N/A,,Overcast,0,2012-10-10 13:53:00
9:03 AM,60.8,59.0,94,30.17,3.0,Calm,Calm,-,N/A,,Mostly Cloudy,0,2012-10-10 14:03:00
9:18 AM,64.4,60.8,88,30.18,9.0,Calm,Calm,-,N/A,,Scattered Clouds,0,2012-10-10 14:18:00
9:53 AM,70.0,61.0,73,30.17,10.0,NE,3.5,-,N/A,,Clear,40,2012-10-10 14:53:00
10:53 AM,75.0,55.9,51,30.17,10.0,NNW,6.9,-,N/A,,Clear,340,2012-10-10 15:53:00
11:53 AM,78.1,57.0,48,30.16,10.0,NNW,6.9,-,N/A,,Clear,330,2012-10-10 16:53:00
12:53 PM,80.1,59.0,48,30.14,10.0,Variable,4.6,-,N/A,,Clear,0,2012-10-10 17:53:00
1:53 PM,81.0,57.9,45,30.11,10.0,Variable,6.9,-,N/A,,Clear,0,2012-10-10 18:53:00
2:53 PM,82.0,59.0,45,30.10,10.0,North,8.1,-,N/A,,Clear,360,2012-10-10 19:53:00
3:53 PM,82.9,60.1,46,30.09,10.0,NNW,9.2,-,N/A,,Clear,330,2012-10-10 20:53:00
4:53 PM,80.1,60.1,50,30.10,10.0,North,6.9,-,N/A,,Clear,360,2012-10-10 21:53:00
5:53 PM,78.1,61.0,56,30.10,10.0,Calm,Calm,-,N/A,,Clear,0,2012-10-10 22:53:00
6:53 PM,72.0,62.1,71,30.12,10.0,Calm,Calm,-,N/A,,Clear,0,2012-10-10 23:53:00
7:53 PM,66.0,62.1,87,30.13,10.0,Calm,Calm,-,N/A,,Clear,0,2012-10-11 00:53:00
8:53 PM,64.0,60.1,87,30.16,10.0,Calm,Calm,-,N/A,,Clear,0,2012-10-11 01:53:00
9:53 PM,62.1,59.0,90,30.17,8.0,Calm,Calm,-,N/A,,Clear,0,2012-10-11 02:53:00
10:53 PM,60.1,57.9,93,30.17,8.0,Calm,Calm,-,N/A,,Clear,0,2012-10-11 03:53:00
11:53 PM,59.0,57.0,93,30.16,7.0,Calm,Calm,-,N/A,,Clear,0,2012-10-11 04:53:00